Simultaneous Nadir Overpasses (SNOs) Predictions

Prediction of SNOs between METOP-A and NOAA-19 Satellite Orbit:

Table of predicted SNOs for the next 14.0 days since TLE Epoch: 10/18/2014
Index Date (METOP-A) Time (METOP-A) Lat,Lon (METOP-A) SZA (METOP-A ) Date (NOAA-19) Time (NOAA-19) Lat,Lon (NOAA-19) SZA (NOAA-19 ) Distance(km) Time Diff (sec)
1 10/20/2014 01:10:04 -74.86, -20.59 94.98 10/20/2014 01:08:56 -74.87, -23.32 94.96 79.38 68
2 10/20/2014 02:00:55 74.34, 145.34 84.52 10/20/2014 01:59:52 74.36, 145.34 84.53 1.83 63
3 10/20/2014 02:51:36 -74.36, -47.29 95.46 10/20/2014 02:50:48 -74.33, -47.33 95.48 3.09 48
4 10/20/2014 03:42:17 74.32, 119.94 84.52 10/20/2014 03:41:54 74.29, 120.00 84.49 3.26 23
5 10/20/2014 04:32:59 -74.29, -72.81 95.51 10/20/2014 04:32:51 -74.32, -72.80 95.48 3.27 8
6 10/20/2014 05:23:39 74.30, 94.55 84.52 10/20/2014 05:23:57 74.28, 94.53 84.50 2.29 18
7 10/20/2014 06:14:21 -74.26, -98.21 95.50 10/20/2014 06:14:53 -74.25, -98.14 95.52 2.45 32
8 10/20/2014 07:05:01 74.27, 69.15 84.52 10/20/2014 07:06:00 74.26, 69.06 84.51 3.16 59
9 10/20/2014 07:55:43 -74.24,-123.60 95.50 10/20/2014 07:56:56 -74.23,-123.61 95.51 0.91 73
10 10/30/2014 08:39:08 74.64, 46.57 88.36 10/30/2014 08:37:57 74.64, 45.18 88.36 40.85 71
11 10/30/2014 09:29:55 -74.39,-146.78 91.90 10/30/2014 09:28:50 -74.36,-146.78 91.92 2.89 65
12 10/30/2014 10:20:36 74.33, 20.40 88.06 10/30/2014 10:19:54 74.34, 20.50 88.08 3.45 42
13 10/30/2014 11:11:17 -74.36,-172.18 91.90 10/30/2014 11:10:53 -74.34,-172.25 91.92 3.08 24
14 10/30/2014 12:01:58 74.30, -5.00 88.06 10/30/2014 12:01:57 74.33, -4.97 88.08 2.48 1
15 10/30/2014 12:52:40 -74.29, 162.29 91.94 10/30/2014 12:52:55 -74.28, 162.41 91.96 3.66 15
16 10/30/2014 13:43:20 74.28, -30.40 88.06 10/30/2014 13:44:00 74.31, -30.44 88.09 3.31 40
17 10/30/2014 14:34:02 -74.27, 136.90 91.94 10/30/2014 14:34:58 -74.26, 136.94 91.95 1.45 56
18 10/30/2014 15:24:47 74.01, -56.41 87.82 10/30/2014 15:25:58 74.05, -55.28 87.85 35.02 71




NCC Satellite Simultaneous Nadir Overpasses (SNOs) Prediction Service
